FW3609 Weather Reports


Display with metric or nautical units.
time (UTC)temp
F
wind
direction
speed
MPH
gust
MPH
rain 1hr
in
rain 24hr
in
rain mn
in
humidity
%
barometer
mb
20260507114544 52 16 0.0 2.0 0.00 0.40 0.07 92 1014.4
20260507113010 53 8 0.0 0.0 0.00 0.40 0.07 95 1014.2
20260507111539 53 8 0.0 0.0 0.00 0.40 0.07 95 1014.4
20260507110006 52 8 0.0 0.0 0.00 0.40 0.07 95 1014.2
20260507104531 53 8 0.0 0.0 0.00 0.40 0.07 96 1014.1
20260507103059 53 24 0.0 0.0 0.00 0.40 0.07 96 1013.7
20260507101524 53 24 0.0 0.0 0.00 0.40 0.07 95 1013.8
20260507094521 53 24 0.0 0.0 0.00 0.40 0.07 95 1013.7
20260507093053 53 24 0.0 0.0 0.00 0.40 0.07 95 1013.4
20260507091523 53 24 0.0 0.0 0.00 0.40 0.07 95 1013.5
20260507090058 53 24 0.0 0.0 0.00 0.40 0.07 95 1013.6
20260507084514 53 24 0.0 0.0 0.01 0.40 0.07 95 1013.2
20260507083040 53 24 0.0 0.0 0.01 0.40 0.07 95 1013.1
20260507081508 53 24 0.0 0.0 0.01 0.40 0.07 95 1012.8
20260507080037 53 32 0.0 2.0 0.01 0.40 0.07 96 1012.5
20260507074502 54 4 0.0 2.0 0.00 0.39 0.06 96 1012.5
20260507073033 54 104 0.0 3.0 0.00 0.39 0.06 96 1012.4
20260507071506 55 44 0.0 0.0 0.00 0.39 0.06 97 1012.3
20260507070042 55 338 0.0 0.0 0.00 0.39 0.06 97 1012.3
20260507064505 55 33 0.0 0.0 0.01 0.39 0.06 96 1012.4
20260507063037 55 304 0.0 0.0 0.01 0.39 0.06 96 1012.4
20260507061507 55 214 0.0 0.0 0.01 0.39 0.06 96 1012.1
20260507060026 55 23 0.0 0.0 0.04 0.39 0.06 95 1012.5
20260507054552 56 354 0.0 0.0 0.05 0.38 0.05 94 1012.5
20260507053013 56 39 0.0 1.0 0.05 0.38 0.05 93 1012.5
20260507051551 57 27 0.0 4.0 0.05 0.38 0.05 90 1012.3
20260507050001 60 300 1.0 3.0 0.02 0.35 0.02 86 1013.1
20260507044529 61 296 1.0 5.0 0.00 0.33 0.00 83 1012.3
20260507043057 61 324 1.0 8.0 0.00 0.33 0.00 80 1012.3
20260507041525 62 27 0.0 7.0 0.00 0.33 0.00 79 1012.2
20260507040044 63 288 0.0 3.0 0.00 0.33 0.33 80 1011.9
20260507034514 63 299 1.0 4.0 0.00 0.33 0.33 78 1011.9
20260507033042 63 351 1.0 5.0 0.00 0.33 0.33 79 1012.0
20260507031511 64 18 0.0 5.0 0.00 0.33 0.33 84 1011.8
20260507030037 64 43 0.0 2.0 0.00 0.33 0.33 84 1011.5
20260507024504 65 300 0.0 4.0 0.00 0.33 0.33 82 1011.5
20260507023031 66 19 0.0 7.0 0.00 0.33 0.33 81 1011.3
20260507021600 66 296 2.0 8.0 0.00 0.33 0.33 82 1011.2
20260507020029 67 19 0.0 5.0 0.00 0.33 0.33 82 1010.9
20260507014559 67 293 0.0 2.0 0.00 0.33 0.33 83 1011.1
20260507013025 68 305 0.0 7.0 0.00 0.33 0.33 83 1011.3
20260507011551 68 269 0.0 0.0 0.00 0.33 0.33 84 1011.1
20260507010023 68 269 0.0 0.0 0.00 0.33 0.33 84 1011.2
20260507004549 68 278 0.0 0.0 0.00 0.33 0.33 84 1010.9
20260507003021 68 249 0.0 2.0 0.00 0.33 0.33 83 1010.6
20260507001556 69 199 0.0 2.0 0.00 0.33 0.33 83 1010.4
20260507000020 69 207 0.0 2.0 0.00 0.33 0.33 82 1010.5
20260506234558 69 226 0.0 2.0 0.00 0.33 0.33 83 1010.4
20260506233024 69 243 0.0 0.0 0.00 0.33 0.33 83 1010.2
20260506231605 69 155 0.0 2.0 0.00 0.33 0.33 83 1009.9
20260506230024 69 102 0.0 1.0 0.00 0.33 0.33 82 1009.8
20260506224547 69 237 0.0 2.0 0.00 0.33 0.33 82 1010.0
20260506223016 69 109 0.0 2.0 0.00 0.33 0.33 82 1009.8
20260506221607 70 46 0.0 2.0 0.00 0.33 0.33 81 1009.7
20260506220015 70 156 0.0 4.0 0.00 0.33 0.33 81 1009.8
20260506214547 70 203 1.0 7.0 0.00 0.33 0.33 79 1009.8
20260506213010 71 223 0.0 5.0 0.00 0.33 0.33 77 1009.7
20260506211512 71 158 0.0 6.0 0.00 0.33 0.33 78 1009.6
20260506210046 70 181 1.0 4.0 0.00 0.33 0.33 79 1009.4
20260506204506 70 191 1.0 6.0 0.00 0.33 0.33 79 1009.3
20260506203033 70 202 0.0 4.0 0.00 0.33 0.33 79 1009.3
20260506201503 71 214 2.0 7.0 0.00 0.33 0.33 78 1009.3
20260506200032 70 203 0.0 4.0 0.00 0.33 0.33 80 1009.4
20260506194600 70 198 1.0 5.0 0.00 0.33 0.33 80 1009.6
20260506193026 71 217 1.0 6.0 0.00 0.33 0.33 79 1009.8
20260506191553 70 122 0.0 7.0 0.00 0.33 0.33 80 1009.7
20260506190026 69 170 1.0 8.0 0.00 0.33 0.33 81 1009.8
20260506184557 68 290 2.0 7.0 0.00 0.33 0.33 82 1009.8
20260506183009 68 202 0.0 7.0 0.00 0.33 0.33 84 1010.1
20260506181537 67 223 0.0 4.0 0.00 0.33 0.33 85 1010.0
20260506174532 65 165 2.0 7.0 0.00 0.33 0.33 89 1010.4
20260506173100 64 222 2.0 8.0 0.00 0.33 0.33 91 1010.3
20260506171538 63 203 1.0 7.0 0.00 0.33 0.33 92 1010.4
20260506170100 63 132 1.0 10.0 0.00 0.33 0.33 94 1010.5
20260506164525 62 205 0.0 9.0 0.00 0.33 0.33 96 1010.5
20260506163101 62 168 1.0 5.0 0.00 0.33 0.33 97 1010.6
20260506161524 61 210 2.0 12.0 0.02 0.33 0.33 97 1010.7
20260506154519 61 200 0.0 4.0 0.04 0.33 0.33 98 1010.9
20260506153044 60 269 1.0 6.0 0.06 0.33 0.33 97 1011.0
20260506151509 60 218 0.0 3.0 0.09 0.31 0.31 97 1011.1
20260506150038 60 97 0.0 2.0 0.11 0.28 0.28 97 1011.5
20260506144505 60 198 0.0 3.0 0.15 0.28 0.28 97 1011.9
20260506143036 60 198 0.0 4.0 0.20 0.27 0.27 97 1011.7
20260506141601 60 172 0.0 2.0 0.18 0.22 0.22 96 1011.7
20260506140033 60 192 0.0 4.0 0.15 0.18 0.18 95 1011.7
20260506134554 61 154 0.0 1.0 0.13 0.14 0.14 94 1011.9
20260506133026 61 134 0.0 4.0 0.07 0.07 0.07 93 1012.3
20260506131552 61 217 0.0 1.0 0.04 0.04 0.04 92 1012.0
20260506130010 62 236 0.0 4.0 0.03 0.03 0.03 91 1011.7
20260506124536 62 200 0.0 5.0 0.01 0.01 0.01 88 1011.4
20260506123100 64 121 0.0 4.0 0.00 0.00 0.00 83 1011.5
20260506121520 64 209 1.0 7.0 0.00 0.00 0.00 82 1011.8
20260506120052 65 203 1.0 8.0 0.00 0.00 0.00 80 1011.9